• In United Kingdom
  • List of Countries
  • For 7 days
  • Water Temperature
  • Satellite Maps
  • Weather Map
  • Weather Widgets
  • user-avatar
    Login

    Hourly Weather Preston

    Today, 18 September, Tuesday

    Time Temperature Precipitation Wind Pressure Humidity
    00:00 +15°C° 0 mm 5 mps 748 mmHg 81%
    01:00 +15°C° 0 mm 6 mps 747 mmHg 82%
    02:00 +15°C° 0 mm 7 mps 746 mmHg 84%
    03:00 +15°C° 0 mm 8 mps 745 mmHg 86%
    04:00 +16°C° 0.3 mm 8 mps 745 mmHg 86%
    05:00 +17°C° 0.3 mm 9 mps 744 mmHg 87%
    06:00 +18°C° 0 mm 9 mps 743 mmHg 87%
    07:00 +18°C° 0.2 mm 9 mps 744 mmHg 87%
    08:00 +18°C° 0.2 mm 9 mps 745 mmHg 86%
    09:00 +18°C° 0.2 mm 9 mps 746 mmHg 86%
    10:00 +18°C° 0 mm 10 mps 747 mmHg 82%
    11:00 +18°C° 0 mm 10 mps 748 mmHg 79%
    12:00 +18°C° 0 mm 10 mps 749 mmHg 75%
    13:00 +18°C° 0 mm 10 mps 749 mmHg 77%
    14:00 +18°C° 0 mm 9 mps 749 mmHg 78%
    15:00 +18°C° 0 mm 8 mps 750 mmHg 80%
    16:00 +17°C° 0.1 mm 8 mps 750 mmHg 80%
    17:00 +17°C° 0.1 mm 8 mps 750 mmHg 81%
    18:00 +17°C° 0.1 mm 8 mps 750 mmHg 81%
    19:00 +17°C° 0.2 mm 8 mps 750 mmHg 82%
    20:00 +17°C° 0.2 mm 8 mps 751 mmHg 83%
    21:00 +16°C° 0.2 mm 8 mps 751 mmHg 84%
    22:00 +16°C° 0.1 mm 8 mps 751 mmHg 84%
    23:00 +15°C° 0.1 mm 7 mps 752 mmHg 84%

    Tomorrow, 19 September, Wednesday

    Time Temperature Precipitation Wind Pressure Humidity
    00:00 +15°C° 0.1 mm 7 mps 752 mmHg 84%
    01:00 +14°C° 0 mm 6 mps 752 mmHg 85%
    02:00 +13°C° 0 mm 6 mps 752 mmHg 86%
    03:00 +13°C° 0 mm 6 mps 752 mmHg 87%
    04:00 +13°C° 0 mm 6 mps 752 mmHg 87%
    05:00 +12°C° 0 mm 7 mps 751 mmHg 88%
    06:00 +12°C° 0 mm 7 mps 751 mmHg 89%
    07:00 +13°C° 0 mm 9 mps 750 mmHg 85%
    08:00 +14°C° 0 mm 10 mps 750 mmHg 81%
    09:00 +16°C° 0 mm 11 mps 749 mmHg 77%
    10:00 +17°C° 0.3 mm 12 mps 749 mmHg 76%
    11:00 +17°C° 0.3 mm 12 mps 749 mmHg 75%
    12:00 +18°C° 0.3 mm 13 mps 748 mmHg 74%
    13:00 +15°C° 0.9 mm 12 mps 749 mmHg 75%
    14:00 +14°C° 0.9 mm 11 mps 750 mmHg 76%
    15:00 +13°C° 0.9 mm 10 mps 750 mmHg 77%
    16:00 +12°C° 0.1 mm 10 mps 751 mmHg 75%
    17:00 +12°C° 0.1 mm 9 mps 752 mmHg 72%
    18:00 +12°C° 0.1 mm 9 mps 752 mmHg 70%
    19:00 +12°C° 0 mm 9 mps 753 mmHg 69%
    20:00 +11°C° 0 mm 9 mps 753 mmHg 67%
    21:00 +11°C° 0 mm 9 mps 754 mmHg 65%
    22:00 +11°C° 0 mm 8 mps 754 mmHg 66%
    23:00 +11°C° 0 mm 8 mps 754 mmHg 66%

    Day after tomorrow, 20 September, Thursday

    Time Temperature Precipitation Wind Pressure Humidity
    00:00 +10°C° 0 mm 8 mps 754 mmHg 67%
    01:00 +10°C° 0.1 mm 7 mps 754 mmHg 70%
    02:00 +10°C° 0.1 mm 7 mps 754 mmHg 73%
    03:00 +9°C° 0.1 mm 6 mps 754 mmHg 76%
    04:00 +9°C° 0.3 mm 6 mps 754 mmHg 79%
    05:00 +9°C° 0.3 mm 5 mps 754 mmHg 82%
    06:00 +9°C° 0.3 mm 5 mps 754 mmHg 85%
    07:00 +9°C° 0.1 mm 5 mps 754 mmHg 83%
    08:00 +10°C° 0.1 mm 5 mps 754 mmHg 81%
    09:00 +10°C° 0.1 mm 5 mps 754 mmHg 79%
    10:00 +12°C° 0.1 mm 4 mps 753 mmHg 77%
    11:00 +12°C° 0.1 mm 4 mps 753 mmHg 75%
    12:00 +13°C° 0.1 mm 4 mps 753 mmHg 72%
    13:00 +12°C° 0.6 mm 3 mps 752 mmHg 76%
    14:00 +13°C° 0.6 mm 2 mps 751 mmHg 80%
    15:00 +12°C° 0.6 mm 1 mps 751 mmHg 83%
    16:00 +12°C° 1 mm 1 mps 750 mmHg 85%
    17:00 +11°C° 1 mm 1 mps 749 mmHg 88%
    18:00 +11°C° 1 mm 1 mps 748 mmHg 90%
    19:00 +10°C° 1.1 mm 2 mps 748 mmHg 90%
    20:00 +9°C° 1.1 mm 2 mps 748 mmHg 90%
    21:00 +9°C° 1.1 mm 3 mps 748 mmHg 90%
    22:00 +8°C° 0.4 mm 4 mps 749 mmHg 89%
    23:00 +8°C° 0.4 mm 4 mps 749 mmHg 87%

    21 September, Friday

    Time Temperature Precipitation Wind Pressure Humidity
    00:00 +8°C° 0.4 mm 5 mps 749 mmHg 85%
    01:00 +8°C° 0.3 mm 5 mps 750 mmHg 84%
    02:00 +8°C° 0.3 mm 5 mps 750 mmHg 84%
    03:00 +8°C° 0.3 mm 6 mps 751 mmHg 83%
    04:00 +8°C° 0.2 mm 6 mps 751 mmHg 83%
    05:00 +7°C° 0.2 mm 6 mps 751 mmHg 82%
    06:00 +6°C° 0.2 mm 7 mps 751 mmHg 81%
    07:00 +7°C° 0.2 mm 8 mps 752 mmHg 78%
    08:00 +9°C° 0.2 mm 8 mps 752 mmHg 75%
    09:00 +10°C° 0.2 mm 9 mps 753 mmHg 72%
    10:00 +9°C° 0.7 mm 10 mps 753 mmHg 74%
    11:00 +9°C° 0.7 mm 10 mps 754 mmHg 76%
    12:00 +9°C° 0.7 mm 10 mps 754 mmHg 78%
    13:00 +9°C° 0.3 mm 10 mps 755 mmHg 76%
    14:00 +11°C° 0.3 mm 9 mps 756 mmHg 75%
    15:00 +11°C° 0.3 mm 9 mps 756 mmHg 73%
    16:00 +11°C° 0.1 mm 8 mps 757 mmHg 74%
    17:00 +10°C° 0.1 mm 7 mps 757 mmHg 75%
    18:00 +10°C° 0.1 mm 6 mps 758 mmHg 76%
    19:00 +9°C° 0.1 mm 6 mps 759 mmHg 77%
    20:00 +9°C° 0.1 mm 6 mps 759 mmHg 79%
    21:00 +9°C° 0.1 mm 5 mps 760 mmHg 81%
    22:00 +8°C° 0.1 mm 5 mps 760 mmHg 81%
    23:00 +8°C° 0.1 mm 5 mps 761 mmHg 82%

    22 September, Saturday

    Time Temperature Precipitation Wind Pressure Humidity
    00:00 +8°C° 0.1 mm 5 mps 761 mmHg 83%
    01:00 +8°C° 0.1 mm 5 mps 761 mmHg 84%
    02:00 +8°C° 0.1 mm 5 mps 761 mmHg 84%
    03:00 +7°C° 0.1 mm 5 mps 762 mmHg 85%
    04:00 +7°C° 0 mm 5 mps 762 mmHg 85%
    05:00 +7°C° 0 mm 4 mps 762 mmHg 84%
    06:00 +7°C° 0 mm 4 mps 763 mmHg 84%
    07:00 +8°C° 0 mm 4 mps 763 mmHg 80%
    08:00 +10°C° 0 mm 4 mps 763 mmHg 76%
    09:00 +11°C° 0 mm 4 mps 763 mmHg 72%
    10:00 +12°C° 0 mm 4 mps 763 mmHg 70%
    11:00 +12°C° 0 mm 3 mps 763 mmHg 68%
    12:00 +12°C° 0 mm 3 mps 763 mmHg 66%
    13:00 +12°C° 0.1 mm 3 mps 762 mmHg 69%
    14:00 +12°C° 0.1 mm 3 mps 762 mmHg 72%
    15:00 +12°C° 0.1 mm 3 mps 761 mmHg 75%
    16:00 +11°C° 1 mm 4 mps 760 mmHg 80%
    17:00 +9°C° 1 mm 5 mps 759 mmHg 84%
    18:00 +9°C° 1 mm 6 mps 758 mmHg 89%
    19:00 +9°C° 2.3 mm 7 mps 757 mmHg 89%
    20:00 +9°C° 2.3 mm 8 mps 756 mmHg 90%
    21:00 +8°C° 2.3 mm 9 mps 755 mmHg 90%
    22:00 +8°C° 0.7 mm 9 mps 753 mmHg 91%
    23:00 +10°C° 0.7 mm 8 mps 751 mmHg 93%

    23 September, Sunday

    Time Temperature Precipitation Wind Pressure Humidity
    00:00 +10°C° 0.7 mm 8 mps 750 mmHg 94%
    01:00 +12°C° 0.2 mm 9 mps 748 mmHg 94%
    02:00 +15°C° 0.2 mm 9 mps 746 mmHg 94%
    03:00 +17°C° 0.2 mm 10 mps 744 mmHg 94%
    04:00 +17°C° 0.9 mm 11 mps 742 mmHg 92%
    05:00 +17°C° 0.9 mm 12 mps 740 mmHg 90%
    06:00 +17°C° 0.9 mm 14 mps 739 mmHg 88%
    07:00 +15°C° 0.7 mm 13 mps 737 mmHg 87%
    08:00 +13°C° 0.7 mm 13 mps 736 mmHg 85%
    09:00 +12°C° 0.7 mm 12 mps 734 mmHg 84%
    10:00 +12°C° 0.6 mm 13 mps 735 mmHg 83%
    11:00 +12°C° 0.6 mm 13 mps 735 mmHg 83%
    12:00 +12°C° 0.6 mm 13 mps 736 mmHg 82%
    13:00 +12°C° 0.2 mm 14 mps 739 mmHg 77%
    14:00 +10°C° 0.2 mm 16 mps 741 mmHg 72%
    15:00 +9°C° 0.2 mm 17 mps 744 mmHg 67%
    16:00 +9°C° 0 mm 16 mps 747 mmHg 65%
    17:00 +9°C° 0 mm 15 mps 751 mmHg 63%
    18:00 +9°C° 0 mm 15 mps 754 mmHg 60%
    19:00 +8°C° 0 mm 14 mps 756 mmHg 60%
    20:00 +7°C° 0 mm 13 mps 758 mmHg 59%
    21:00 +7°C° 0 mm 12 mps 760 mmHg 58%
    22:00 +6°C° 0 mm 11 mps 762 mmHg 59%
    23:00 +6°C° 0 mm 11 mps 763 mmHg 59%
    Show more